Location: Lecco
(45.8566°N, 9.3977°E)
Time: 07:59:57
(UTC+02:00)

A-11 Canister half - Pass Details

Date: 23 August 2020
Orbit: 1514 x 1686 km, 47.2° (Epoch: 21 September)

Event Time Altitude Azimuth Distance (km) Brightness Sun altitude
Rises 22:07:17 0° 293° (WNW) 4,792 13.1 -17.9°
Reaches altitude 10° 22:10:34 10° 286° (WNW) 3,829 12.1 -18.3°
Maximum altitude 22:19:24 40° 221° (SW) 2,255 9.8 -19.5°
Enters shadow 22:25:33 21° 167° (SSE) 3,147 10.1 -20.3°
